Location: Lower Kingswood
(51.2667°N, 0.2167°W)
Time: 04:22:35
(UTC+00:00)

Cosmos 2333 - Pass Details

Date: 26 September 2023
Orbit: 828 x 866 km, 70.9° (Epoch: 29 November)

Event Time Altitude Azimuth Distance (km) Brightness Sun altitude
Rises 04:10:58 0° 328° (NNW) 3,422 7.2 -16.5°
Reaches altitude 10° 04:13:25 10° 326° (NW) 2,488 6.5 -16.1°
Maximum altitude 04:19:06 69° 245° (WSW) 918 4.1 -15.3°
Drops below altitude 10° 04:24:48 10° 163° (SSE) 2,495 6.7 -14.4°
Sets 04:27:16 0° 161° (SSE) 3,431 7.4 -14.0°
